Temperature
23 22 22 21 20 19 21 23 24 25 25 25 25 25 24 24 23 21 21 21 21 21 21 20 20 20 20 20 20 19 19 19 19 19 19 19 19 19 18 18 18 18 18 18 18 18 18 18 18
23 22 22 21 20 20 22 24 25 25 25 25 24 24 24 22 22 21 20 21 21 21 21 20 20 20 20 20 19 19 19 19 19 19 19 19 19 19 18 18 18 18 18 18 18 18 18 18 18
23 22 22 20 21 21 23 25 26 26 26 25 24 24 23 22 21 21 21 21 21 21 21 20 20 20 20 20 19 19 19 19 19 19 19 19 18 19 18 18 18 19 18 18 18 18 18 18 17
23 22 22 20 22 24 25 26 27 27 26 25 24 23 23 22 22 22 21 21 21 21 21 20 20 20 20 19 19 19 19 19 19 19 19 19 19 19 19 19 19 19 19 18 18 18 18 18 17
23 22 20 21 23 25 27 28 27 26 26 25 24 22 22 22 23 22 21 21 21 21 21 20 20 20 20 20 19 19 19 19 19 19 19 19 19 19 18 19 18 18 18 18 18 18 18 18 17
23 21 21 21 24 27 28 28 28 26 25 24 23 22 21 21 22 21 21 21 21 21 21 20 20 20 20 20 19 19 19 19 19 19 19 19 19 19 19 19 18 18 18 18 18 18 18 17 17
23 21 21 23 24 26 28 29 28 26 25 24 23 21 21 21 21 21 21 21 21 21 20 20 20 20 20 19 19 19 19 19 19 19 19 19 19 19 19 19 19 18 18 18 18 18 18 18 17
24 21 22 23 25 26 28 29 28 26 25 24 24 22 21 21 21 21 20 20 20 20 20 20 20 20 19 19 19 19 19 19 19 19 19 19 19 18 18 18 19 19 18 18 18 18 18 18 17
25 21 21 23 25 26 28 28 27 26 25 24 24 23 23 21 20 20 20 20 20 20 20 20 20 19 19 19 19 19 19 19 19 18 18 18 18 18 18 18 18 18 18 18 18 18 18 18 18
25 21 23 25 26 27 28 28 27 25 24 23 23 23 22 21 20 20 20 19 19 19 19 19 19 19 19 19 19 19 19 19 19 18 18 18 18 18 18 18 18 18 18 18 18 18 18 18 18
24 23 25 26 28 28 28 27 27 25 23 23 22 22 21 21 20 20 20 20 20 20 19 19 19 19 19 19 19 19 19 19 18 18 18 18 18 18 18 18 18 18 18 18 18 18 18 18 18
25 26 27 28 28 28 28 27 26 25 25 25 24 23 21 21 20 20 19 19 19 19 19 19 19 19 19 19 19 19 19 19 18 18 18 18 18 18 18 18 18 18 18 18 18 18 18 18 17
26 26 27 28 28 28 28 26 25 24 24 24 23 22 21 21 20 20 20 19 19 19 19 19 19 19 19 19 19 19 19 18 18 18 18 18 18 18 17 18 18 18 18 17 17 17 17 17 17
26 27 27 27 28 28 27 25 24 23 23 22 22 21 21 21 20 20 19 19 19 19 19 19 19 19 19 19 19 19 18 18 18 18 17 17 17 17 17 17 17 17 17 17 17 17 17 17 17
27 25 25 26 27 27 26 24 24 23 23 21 21 21 21 21 20 20 20 19 19 19 19 18 18 18 18 19 18 18 18 18 18 18 17 17 17 17 17 17 17 17 17 17 17 17 17 17 17
25 24 24 25 26 26 26 24 24 23 22 21 21 21 21 20 20 20 20 19 19 19 19 18 18 18 18 18 18 18 18 18 18 18 17 17 17 17 17 17 17 17 17 17 17 17 17 17 17
23 23 24 25 26 26 25 23 23 23 23 21 20 20 20 20 20 19 19 19 19 19 18 18 18 18 18 18 18 18 18 18 18 17 17 17 17 17 17 17 17 17 17 16 16 17 16 16 17
22 23 24 25 26 26 24 23 23 23 22 21 20 20 20 19 19 19 19 19 18 18 18 18 18 18 18 18 18 17 17 17 17 17 17 17 17 17 17 17 16 16 16 16 16 16 16 16 16
24 25 25 25 26 25 24 23 22 22 22 20 19 19 19 19 19 19 18 18 18 18 18 18 18 18 18 18 18 17 17 17 17 17 17 17 17 17 17 16 16 16 16 16 16 16 16 16 16
25 25 25 26 26 25 23 22 22 21 21 21 20 19 19 19 18 18 18 18 17 17 17 18 17 18 18 18 18 18 18 17 17 17 17 17 17 17 16 16 16 16 16 16 16 16 16 16 16
26 26 26 26 25 24 23 21 21 21 21 21 20 20 19 19 18 18 18 17 17 17 17 17 17 17 18 18 17 17 17 17 17 17 17 17 16 16 16 16 16 16 16 16 16 16 15 16 16
25 27 27 26 23 21 22 20 20 20 20 20 20 19 19 18 18 18 18 18 18 17 17 17 18 17 17 17 17 17 17 17 17 17 17 16 16 16 16 16 16 16 15 15 15 15 15 15 15
26 27 25 24 22 20 20 20 19 19 19 19 19 19 19 19 19 18 18 18 18 18 17 17 17 17 17 17 17 17 17 17 17 17 16 16 16 16 16 16 16 16 15 15 15 15 15 15 15
27 25 22 20 19 20 20 20 19 19 19 19 19 19 19 19 19 18 18 18 17 17 17 17 17 17 17 17 17 17 17 17 17 17 16 16 16 16 16 16 16 15 15 15 15 15 15 15 15
26 23 21 21 19 19 19 20 19 20 20 20 20 20 19 19 19 18 18 18 18 17 17 17 17 17 17 17 17 17 17 17 17 17 17 16 16 16 16 16 15 15 15 15 15 15 15 15 15
25 23 21 21 20 19 19 19 20 21 21 21 21 20 19 19 19 19 19 18 18 18 17 17 17 17 17 17 17 17 17 17 17 17 17 17 16 16 16 16 16 15 15 15 15 15 14 14 14
25 23 21 20 20 19 19 19 20 21 21 21 20 20 19 19 19 19 19 19 18 18 18 18 17 17 17 17 17 17 17 17 17 17 17 17 16 16 16 16 16 15 15 15 15 14 14 14 14
25 23 20 19 19 20 20 20 19 20 20 20 20 20 20 19 19 19 19 19 19 18 18 18 18 18 18 17 17 17 17 17 17 17 17 17 16 16 16 16 15 15 15 15 15 14 14 14 14
24 23 21 18 19 19 19 19 21 20 20 20 20 20 20 20 20 19 19 19 19 19 18 18 18 18 18 18 17 17 17 17 17 17 17 17 16 16 16 16 15 15 15 15 15 14 14 14 14
23 22 20 20 20 19 18 19 22 20 20 20 20 21 21 20 20 20 20 19 19 19 18 18 18 18 18 18 18 17 17 17 17 17 17 16 16 16 16 16 15 15 15 15 15 15 14 14 14
Wind_Speed
8 7 3 1 2 3 2 4 4 3 0 3 8 9 9 6 4 4 6 17 20 19 21 24 24 24 23 22 22 21 20 20 19 19 18 18 18 17 17 16 16 16 15 15 15 14 14 14 14
4 5 2 2 3 1 4 4 5 6 6 7 9 8 8 5 6 8 9 17 21 19 20 22 25 25 24 23 22 21 20 20 19 18 18 18 18 17 16 16 16 16 15 15 14 14 14 13 13
3 3 2 2 2 4 5 4 7 5 7 6 5 4 4 6 8 6 11 19 18 16 19 23 26 25 24 23 22 21 20 19 19 18 18 17 17 17 16 16 16 15 15 14 13 13 12 12 12
1 2 2 0 7 8 8 9 7 6 4 5 8 6 3 3 6 11 19 20 18 14 18 23 26 25 24 23 22 21 20 19 18 18 17 17 17 16 16 15 15 15 14 13 12 12 11 11 10
2 3 1 3 7 7 8 8 6 7 5 7 10 7 3 3 16 20 19 20 19 15 16 22 25 25 24 23 22 21 20 19 18 18 17 17 16 16 16 15 15 14 13 12 11 10 10 9 9
2 3 1 4 7 7 5 3 8 9 9 9 10 8 3 9 18 19 18 17 17 18 16 20 24 24 23 23 22 21 20 19 19 18 17 16 16 15 15 15 14 13 12 11 10 9 8 8 8
3 1 4 5 6 7 4 3 8 9 9 7 9 8 6 10 15 18 17 16 15 15 14 15 20 22 23 23 22 21 20 19 18 18 17 16 16 15 14 14 14 13 11 10 8 7 6 6 5
5 2 4 4 5 5 3 1 6 9 8 8 7 10 9 13 16 16 16 16 15 13 12 11 15 17 18 20 21 21 20 19 18 17 17 16 15 14 14 13 13 12 10 9 7 5 4 4 3
3 1 5 5 4 5 3 2 3 6 8 5 3 5 12 19 19 17 15 14 15 15 11 10 11 14 16 17 19 20 20 19 18 16 16 15 13 13 13 12 12 11 10 8 6 4 2 1 2
5 4 8 6 5 4 3 2 5 6 7 4 5 8 15 19 19 19 19 19 17 17 14 11 11 12 14 15 15 15 15 15 14 13 13 12 11 11 11 12 11 10 8 6 5 3 1 0 1
6 8 9 8 8 3 2 3 3 9 4 8 12 15 17 17 17 18 18 19 18 18 17 14 12 11 11 9 12 10 11 12 12 13 13 11 10 9 9 9 8 8 7 4 3 2 1 1 1
6 11 10 8 6 2 0 1 3 3 7 11 16 17 16 16 16 17 18 18 17 17 17 15 12 11 10 11 10 9 8 9 9 11 13 11 7 6 7 6 7 6 6 4 4 2 1 2 2
7 9 8 6 4 2 1 1 3 4 9 13 15 15 14 14 12 12 14 15 17 17 17 15 13 11 10 9 8 9 7 8 10 11 12 13 8 5 6 5 6 6 5 5 3 2 1 2 2
5 6 7 6 4 1 2 1 4 6 11 14 14 13 13 13 12 11 12 13 15 17 17 15 13 11 10 9 7 7 8 9 10 10 12 14 11 8 5 4 4 4 5 5 4 2 2 1 1
4 6 8 6 4 2 3 1 3 9 12 14 14 13 12 10 10 11 12 14 16 16 15 15 14 12 11 10 8 7 8 9 8 9 13 13 13 11 8 4 3 4 5 5 4 3 2 1 1
6 4 5 8 3 3 3 6 5 9 13 13 12 12 10 9 9 9 10 11 13 15 15 14 15 13 10 9 7 6 8 9 8 10 12 13 13 13 9 4 4 5 6 4 3 2 2 1 1
4 3 7 9 5 3 4 5 5 8 11 11 11 10 10 8 7 7 9 11 13 14 15 14 13 13 11 9 7 6 7 7 8 10 10 11 12 12 9 5 5 7 5 3 2 2 2 1 1
7 6 7 8 5 3 3 4 5 7 9 10 9 8 8 8 7 7 7 10 12 13 13 13 13 12 11 9 7 5 5 4 6 8 9 11 10 11 9 6 5 6 4 3 2 2 2 1 0
10 11 11 9 4 2 3 4 6 6 8 8 8 8 8 7 6 6 8 10 12 12 12 12 13 12 10 8 8 7 6 5 4 5 9 11 10 10 8 5 5 5 4 4 3 2 2 2 1
14 12 9 5 1 2 2 1 3 5 7 9 10 9 9 7 7 7 8 9 12 13 12 12 11 11 10 8 7 6 6 4 4 4 6 10 10 10 8 6 5 5 4 4 3 3 2 1 2
13 8 6 4 1 5 4 3 1 2 3 5 8 8 10 12 12 10 9 8 11 13 13 14 12 11 10 9 7 7 5 4 3 4 3 5 9 9 9 8 6 5 4 4 4 3 4 2 2
9 7 4 2 3 2 2 1 5 3 2 4 6 7 9 10 12 11 10 10 10 11 12 11 12 11 10 10 10 11 8 6 5 5 4 4 8 9 10 9 7 5 4 5 4 4 3 3 1
7 4 2 2 4 3 4 2 6 3 4 6 6 7 10 11 13 13 13 12 11 11 11 11 11 10 9 9 10 10 8 5 5 5 6 5 4 7 9 9 7 6 4 5 5 4 4 3 3
5 2 5 6 5 2 2 1 6 4 7 6 7 8 10 12 12 12 11 10 9 10 10 11 11 10 9 10 10 10 10 9 9 7 7 5 3 3 6 8 7 6 5 5 4 5 5 4 3
2 3 4 5 5 3 3 2 7 7 6 8 9 10 12 13 13 12 12 11 11 11 12 11 12 10 10 10 10 10 10 11 11 9 8 6 4 3 5 5 5 5 5 5 5 5 5 4 4
4 7 6 5 4 3 2 4 7 7 5 7 8 10 11 12 13 14 14 14 13 13 13 13 12 10 10 10 10 9 10 9 8 8 7 7 6 5 6 6 6 6 6 6 5 4 4 4 4
2 3 7 6 3 1 4 5 8 3 1 5 8 11 13 13 14 15 14 14 14 15 14 14 14 11 10 10 9 9 9 9 9 9 8 6 6 6 7 7 7 6 6 6 6 4 4 4 4
4 4 5 5 4 2 4 4 5 5 5 6 10 12 13 13 13 14 14 14 14 14 14 13 13 12 10 10 10 10 9 9 9 9 9 8 8 7 8 8 7 7 6 6 5 4 4 5 4
2 1 4 4 5 6 4 6 6 8 8 9 10 12 12 13 15 14 14 14 14 14 14 14 13 11 10 11 9 9 9 9 9 9 9 9 8 9 10 9 8 8 7 6 6 5 5 6 5
4 4 6 5 4 5 5 7 5 7 8 8 9 11 12 13 14 15 15 14 14 15 15 15 14 13 12 11 10 10 9 9 9 9 9 9 9 9 10 9 9 8 8 7 7 7 6 7 6
Wind_Direction
198 200 185 85 46 40 263 234 216 229 337 79 101 108 106 99 136 152 136 142 140 146 150 147 143 140 137 134 131 127 125 122 120 118 117 116 115 114 113 113 112 110 108 107 105 104 104 102 102
196 193 154 58 83 9 269 227 212 212 163 117 86 89 88 75 89 108 123 141 141 144 147 148 145 142 140 138 135 132 130 128 125 123 122 120 119 117 116 115 114 113 111 109 107 105 103 102 101
217 198 145 105 180 204 245 233 205 210 154 132 108 75 80 112 115 117 136 140 138 142 147 149 146 144 143 141 138 136 134 132 130 129 127 125 122 121 119 118 117 116 113 111 108 106 103 101 99
182 81 50 102 248 243 236 241 208 150 110 114 117 88 57 110 125 131 138 140 138 142 146 150 147 146 144 142 140 139 138 136 135 133 130 128 127 125 123 121 120 119 117 115 112 108 103 99 95
98 93 47 278 261 260 253 224 170 137 136 126 112 102 51 43 120 133 140 142 143 144 146 149 148 147 146 144 143 142 141 140 139 137 134 133 131 129 127 125 124 123 120 118 116 111 103 95 88
45 82 103 267 277 292 276 192 134 119 126 126 112 112 103 130 131 139 142 144 145 146 146 149 150 149 147 146 146 146 145 144 143 141 139 137 135 133 132 130 129 128 126 124 121 114 104 91 79
158 146 231 257 285 294 279 139 138 139 136 141 133 118 130 145 144 144 141 139 141 143 144 147 151 151 150 150 149 149 148 147 147 145 143 143 141 140 139 137 135 134 134 132 128 122 110 96 81
174 117 277 275 278 284 276 80 123 126 127 133 132 137 158 162 148 142 139 140 141 141 145 145 149 149 150 151 152 152 152 151 150 149 149 148 147 146 144 144 143 142 142 141 138 131 117 95 66
167 139 257 252 253 266 289 62 83 93 114 122 125 146 155 150 145 142 140 142 147 150 152 151 150 148 149 152 156 155 154 155 154 155 155 151 148 148 151 153 152 151 149 148 147 146 135 87 47
155 193 240 232 241 258 299 92 128 108 108 105 106 114 137 145 148 151 153 155 157 159 159 160 157 154 154 157 155 156 155 156 156 158 155 153 153 157 160 160 159 157 153 153 159 165 165 58 34
196 216 244 262 260 250 346 27 81 126 139 168 156 149 147 150 153 155 156 159 161 162 163 165 165 163 163 153 154 156 155 156 158 161 160 160 159 162 157 156 156 153 151 146 145 130 91 64 70
237 255 255 261 267 280 291 102 82 140 173 164 154 150 148 149 157 161 159 160 161 163 165 165 167 165 161 154 159 160 161 163 166 169 164 157 153 153 153 153 150 149 145 139 132 127 95 59 82
259 264 269 264 280 266 21 50 115 117 136 137 140 141 144 151 159 160 160 162 163 164 164 166 166 166 160 155 165 164 167 170 170 169 167 159 154 154 153 153 152 153 151 145 140 132 115 80 77
275 304 297 288 277 252 145 145 110 156 145 141 145 147 149 155 158 159 158 159 166 165 165 167 166 165 161 161 162 161 167 166 163 164 166 160 155 153 149 147 147 148 155 155 149 144 139 119 86
314 325 316 299 275 248 112 354 192 165 153 148 155 156 155 158 159 164 169 166 169 167 165 165 164 164 162 161 162 158 161 161 159 159 160 159 155 153 148 147 148 155 155 143 120 101 94 87 67
341 337 299 284 262 253 144 241 223 169 156 156 159 159 160 163 169 171 170 171 168 165 166 166 167 163 160 156 151 152 154 154 155 154 157 158 156 154 148 147 153 155 144 131 119 101 90 67 63
340 281 271 282 255 226 162 221 215 167 159 160 161 161 163 167 179 178 170 170 168 165 165 166 162 161 157 149 145 145 144 147 150 149 150 152 152 153 150 151 155 146 130 127 137 94 108 100 55
258 262 274 269 264 198 172 204 176 166 165 164 160 158 160 170 185 180 167 163 161 161 159 162 158 158 150 141 131 129 131 140 146 150 152 149 151 153 147 147 149 140 124 122 115 97 78 109 120
255 271 278 274 261 168 193 183 180 177 165 161 162 167 167 172 173 162 160 163 160 161 158 160 159 156 150 148 148 148 151 152 151 157 154 149 152 153 148 141 136 134 134 143 134 109 71 37 52
257 265 274 289 302 104 127 90 159 178 183 178 174 173 169 160 151 155 153 149 154 159 158 157 163 159 159 156 153 151 147 151 151 147 147 152 152 151 149 140 136 134 127 117 106 99 91 26 61
263 247 239 236 59 52 90 21 328 210 191 184 176 172 165 164 161 158 155 152 149 154 161 164 164 163 161 153 138 134 119 112 120 137 146 156 153 148 147 142 134 130 128 132 128 118 117 95 23
266 257 209 153 90 354 68 215 266 239 239 200 185 175 167 165 161 158 158 160 159 159 161 161 162 159 158 154 152 155 156 158 168 162 154 152 146 142 144 142 134 131 129 136 140 123 125 124 91
254 247 130 119 119 69 19 113 280 238 231 224 204 186 171 168 166 166 169 170 167 163 160 161 160 159 160 159 161 160 158 156 148 144 145 146 140 141 144 143 135 134 134 139 134 125 125 126 134
239 53 43 52 70 38 290 180 272 240 226 217 199 185 176 171 171 168 167 163 161 161 160 163 163 165 166 164 164 162 160 155 152 157 160 157 147 141 144 141 139 143 143 148 148 141 137 132 122
323 85 19 354 11 262 255 227 251 249 232 208 197 188 183 173 172 172 169 169 169 168 169 169 167 168 170 168 168 169 166 162 166 168 169 163 160 165 170 152 149 151 154 155 149 145 145 142 133
250 151 169 208 223 257 287 247 262 261 241 211 191 175 173 176 176 179 179 175 176 176 173 171 171 172 173 171 172 169 162 164 170 172 169 174 179 179 170 158 157 160 161 157 147 146 156 147 144
239 211 178 149 145 135 264 277 296 283 243 177 175 171 175 180 181 182 181 179 178 177 177 175 174 176 176 172 168 166 163 163 169 171 169 175 178 176 168 163 161 163 159 155 145 149 163 155 157
163 174 98 112 147 227 268 260 247 243 209 185 182 182 183 180 179 181 183 183 181 178 177 176 177 179 176 172 173 174 170 170 170 168 173 177 178 171 166 167 165 167 167 163 157 159 171 167 178
323 45 122 130 153 161 220 256 232 208 199 192 198 193 186 183 184 183 184 183 180 175 176 178 180 178 178 177 176 171 174 171 167 172 178 177 175 170 171 173 172 175 177 175 171 178 177 181 193
191 195 156 160 211 171 178 255 267 195 189 186 200 198 191 189 186 184 182 179 178 178 179 181 182 183 184 180 178 177 176 172 171 177 178 174 172 173 173 173 176 183 186 183 183 192 188 191 201
Height
1514 1514 1514 1515 1516 1522 1524 1514 1505 1501 1499 1497 1496 1497 1499 1503 1509 1516 1513 1514 1519 1523 1527 1531 1533 1536 1538 1540 1541 1543 1544 1545 1547 1548 1549 1550 1551 1552 1553 1554 1554 1555 1556 1557 1557 1558 1559 1559 1560
1514 1514 1515 1515 1520 1531 1522 1506 1501 1496 1496 1497 1498 1499 1500 1504 1505 1508 1511 1516 1520 1523 1527 1531 1534 1536 1538 1540 1542 1543 1545 1546 1548 1549 1550 1551 1552 1553 1554 1555 1556 1556 1557 1558 1559 1560 1560 1561 1562
1513 1513 1515 1516 1521 1525 1515 1499 1495 1492 1494 1494 1498 1500 1502 1505 1506 1508 1512 1516 1521 1525 1528 1531 1534 1536 1539 1540 1542 1544 1545 1547 1548 1549 1551 1552 1553 1554 1555 1556 1557 1558 1559 1559 1560 1561 1562 1563 1564
1512 1514 1514 1518 1518 1507 1500 1494 1491 1493 1494 1495 1496 1501 1505 1507 1507 1508 1513 1517 1521 1525 1529 1532 1534 1537 1539 1541 1543 1544 1546 1548 1549 1550 1551 1553 1554 1555 1556 1557 1558 1559 1560 1561 1562 1563 1564 1565 1566
1511 1512 1517 1520 1511 1497 1490 1487 1487 1488 1492 1494 1494 1501 1506 1508 1508 1510 1513 1518 1521 1525 1530 1533 1535 1537 1540 1541 1543 1545 1547 1548 1550 1551 1552 1553 1555 1556 1557 1558 1560 1561 1562 1563 1564 1565 1566 1567 1568
1511 1511 1521 1522 1507 1492 1486 1484 1485 1488 1492 1494 1495 1500 1506 1508 1509 1511 1514 1518 1522 1524 1529 1533 1536 1538 1540 1542 1543 1545 1547 1549 1550 1552 1553 1554 1556 1557 1558 1559 1561 1562 1563 1564 1565 1566 1568 1569 1569
1511 1513 1517 1512 1504 1494 1486 1484 1484 1487 1490 1492 1493 1499 1505 1508 1509 1511 1514 1517 1521 1525 1528 1532 1535 1538 1540 1542 1543 1545 1547 1549 1551 1552 1554 1555 1556 1558 1559 1560 1562 1563 1564 1565 1567 1568 1569 1570 1571
1507 1510 1512 1509 1502 1495 1484 1483 1484 1485 1488 1491 1492 1495 1501 1505 1508 1511 1514 1517 1521 1524 1527 1531 1534 1537 1540 1542 1544 1546 1547 1549 1551 1553 1554 1556 1557 1558 1560 1561 1562 1564 1565 1566 1568 1569 1570 1571 1572
1506 1513 1515 1506 1498 1490 1483 1483 1485 1486 1487 1489 1490 1492 1495 1501 1506 1510 1513 1517 1520 1524 1527 1530 1533 1536 1539 1541 1544 1546 1548 1549 1551 1553 1555 1556 1557 1559 1560 1562 1563 1564 1566 1567 1568 1570 1571 1572 1573
1501 1512 1504 1492 1488 1486 1482 1482 1484 1487 1489 1490 1491 1493 1496 1499 1503 1506 1509 1513 1516 1521 1525 1529 1532 1535 1538 1541 1543 1545 1547 1549 1551 1553 1555 1556 1558 1559 1561 1562 1563 1565 1566 1567 1569 1570 1571 1572 1573
1497 1498 1490 1485 1484 1483 1482 1482 1482 1485 1489 1488 1488 1492 1495 1499 1502 1504 1506 1509 1513 1517 1522 1527 1531 1534 1537 1539 1542 1544 1546 1548 1551 1553 1554 1556 1558 1559 1561 1562 1564 1565 1566 1568 1569 1570 1571 1573 1573
1493 1488 1485 1482 1480 1479 1480 1480 1482 1482 1484 1484 1486 1489 1492 1497 1500 1503 1505 1508 1512 1517 1520 1524 1528 1532 1535 1538 1541 1543 1546 1548 1550 1552 1554 1556 1558 1559 1561 1562 1564 1565 1566 1568 1569 1570 1571 1572 1573
1489 1485 1482 1480 1478 1477 1478 1479 1481 1483 1483 1485 1487 1490 1492 1495 1499 1502 1505 1507 1510 1515 1518 1522 1526 1530 1533 1537 1540 1543 1545 1547 1549 1551 1553 1555 1557 1559 1561 1562 1563 1565 1566 1567 1569 1570 1571 1572 1572
1485 1483 1480 1478 1476 1475 1477 1480 1481 1484 1484 1486 1487 1489 1492 1495 1497 1501 1504 1506 1509 1512 1516 1520 1524 1528 1531 1535 1538 1541 1544 1547 1549 1551 1553 1555 1557 1558 1560 1562 1563 1564 1565 1567 1568 1569 1570 1570 1571
1483 1483 1480 1476 1475 1474 1476 1482 1481 1481 1483 1486 1488 1489 1491 1493 1496 1498 1501 1503 1506 1509 1513 1517 1522 1525 1529 1534 1537 1540 1543 1546 1548 1550 1552 1554 1556 1558 1559 1561 1562 1563 1565 1566 1567 1568 1569 1570 1570
1484 1487 1491 1478 1473 1472 1479 1489 1480 1481 1483 1485 1487 1489 1491 1492 1494 1496 1498 1501 1504 1507 1511 1516 1520 1524 1528 1532 1536 1539 1542 1545 1547 1549 1551 1553 1555 1557 1558 1560 1561 1562 1564 1565 1566 1567 1568 1568 1569
1493 1498 1493 1481 1471 1471 1477 1484 1478 1480 1482 1484 1486 1488 1490 1491 1493 1494 1495 1497 1501 1505 1509 1514 1518 1523 1526 1530 1534 1538 1541 1544 1546 1548 1550 1552 1554 1555 1557 1558 1560 1561 1562 1564 1565 1566 1567 1568 1568
1501 1497 1490 1484 1472 1471 1477 1480 1477 1480 1482 1484 1486 1487 1489 1490 1490 1491 1492 1494 1497 1501 1506 1512 1517 1521 1525 1528 1533 1536 1540 1542 1545 1547 1549 1551 1552 1554 1556 1557 1559 1560 1561 1563 1564 1565 1566 1567 1568
1487 1488 1487 1478 1468 1472 1477 1479 1479 1479 1481 1483 1485 1486 1487 1488 1489 1490 1490 1491 1494 1498 1503 1509 1514 1518 1523 1526 1530 1534 1537 1541 1544 1546 1548 1549 1551 1553 1555 1556 1558 1559 1560 1562 1563 1564 1565 1566 1566
1482 1486 1483 1475 1468 1472 1479 1481 1478 1479 1478 1479 1481 1483 1484 1486 1487 1488 1489 1489 1491 1496 1501 1507 1512 1516 1521 1525 1529 1533 1536 1540 1543 1545 1547 1548 1550 1552 1553 1555 1556 1558 1559 1561 1562 1563 1564 1565 1565
1477 1479 1477 1476 1473 1475 1481 1490 1484 1480 1480 1479 1479 1480 1482 1483 1485 1487 1488 1489 1491 1495 1500 1506 1511 1514 1520 1524 1528 1532 1536 1539 1541 1543 1545 1547 1549 1550 1552 1554 1555 1556 1558 1559 1561 1562 1563 1564 1564
1478 1465 1465 1470 1482 1493 1488 1505 1491 1483 1481 1479 1479 1480 1481 1483 1485 1487 1489 1490 1493 1496 1500 1505 1510 1513 1518 1523 1527 1530 1533 1536 1539 1541 1544 1546 1548 1549 1551 1552 1554 1555 1557 1558 1559 1560 1561 1562 1563
1467 1460 1465 1471 1482 1495 1494 1502 1496 1484 1482 1480 1478 1479 1480 1482 1484 1486 1489 1491 1494 1497 1501 1504 1509 1513 1517 1522 1526 1529 1532 1535 1538 1541 1543 1545 1547 1548 1550 1551 1553 1554 1555 1556 1557 1559 1560 1561 1562
1457 1464 1472 1481 1491 1507 1500 1502 1499 1486 1479 1476 1476 1477 1479 1482 1484 1487 1489 1492 1495 1497 1501 1505 1509 1513 1517 1521 1524 1527 1531 1534 1536 1539 1541 1544 1546 1547 1549 1550 1551 1553 1554 1555 1556 1557 1558 1559 1561
1458 1478 1499 1504 1513 1512 1499 1499 1494 1475 1471 1471 1472 1474 1477 1480 1483 1486 1489 1491 1494 1497 1501 1504 1508 1512 1516 1519 1522 1526 1529 1532 1535 1537 1540 1542 1544 1545 1547 1549 1550 1551 1552 1553 1554 1555 1557 1558 1559
1461 1473 1499 1511 1515 1510 1499 1499 1484 1468 1466 1467 1469 1471 1475 1479 1481 1484 1487 1490 1493 1497 1500 1503 1507 1511 1515 1518 1521 1525 1528 1531 1534 1536 1538 1540 1542 1544 1546 1547 1549 1550 1551 1552 1553 1554 1555 1557 1558
1461 1470 1472 1491 1500 1510 1504 1492 1477 1465 1465 1466 1468 1471 1473 1476 1479 1482 1486 1489 1492 1495 1498 1502 1506 1510 1514 1517 1520 1524 1526 1529 1532 1534 1537 1539 1541 1543 1545 1546 1548 1549 1550 1551 1552 1553 1554 1555 1556
1453 1460 1477 1491 1507 1513 1504 1496 1488 1471 1468 1467 1468 1469 1471 1474 1477 1480 1483 1487 1490 1493 1497 1501 1505 1508 1512 1515 1518 1521 1524 1527 1530 1533 1535 1537 1539 1541 1543 1545 1546 1548 1549 1550 1551 1552 1553 1554 1555
1457 1463 1471 1485 1491 1506 1512 1498 1466 1464 1463 1464 1465 1466 1469 1471 1474 1477 1481 1485 1488 1492 1496 1499 1503 1507 1510 1513 1516 1519 1522 1525 1528 1531 1533 1535 1537 1539 1541 1543 1545 1546 1547 1548 1549 1550 1551 1552 1553
1451 1458 1469 1484 1489 1491 1499 1491 1456 1457 1458 1460 1462 1464 1466 1469 1471 1474 1478 1482 1487 1490 1493 1497 1501 1504 1508 1511 1514 1517 1520 1523 1526 1528 1531 1533 1535 1537 1539 1541 1542 1544 1545 1546 1547 1548 1549 1550 1551